Tracking 35331 objects as of 16-Sep-2026
HD Live streaming from Space Station
objects crossing your sky now

STARLINK-3804

Track STARLINK-3804 now!
10-day predictions
STARLINK-3804 is classified as:


NORAD ID: 52270
Int'l Code: 2022-041K
Launch date: April 21, 2022
Source: United States (US)
Launch site: AIR FORCE EASTERN TEST RANGE (AFETR)
Your satellite tracking list
Your tracking list is empty




NASA's NSSDC Master Catalog

Two Line Element Set (TLE):
1 52270U 22041K   26259.20890082  .00000759  00000-0  33600-4 0  9995
2 52270  53.1620 327.8059 0000928  67.7846 292.3255 15.34391707243205
Source of the keplerian elements: AFSPC